STARLINK-30324 (57640 NORAD) Tracking and Keplerian Element Data

This shows tracking and keplerian element data for the satellite.

Feedback or suggestion? Click here.




ElementValue
Catalog57640
NameSTARLINK-30324
Epoch Orbit279
Epoch Day238.91667824
Epoch Year2023
RAAN95.9286
Inclination43.0009
Eccentricity0.0001257
Argument of Perigee190.4592
Mean Anonmoly233.0885
Mean Motion15.86045603
Decay Rate-0.00895129
L11 57640U 23122J 23238.91667824 -.00895129 00000+0 -38772-2 0 9997
L22 57640 43.0009 95.9286 0001257 190.4592 233.0885 15.86045603 2799



Live tracking and technical data element details for STARLINK-30324 (NORAD 57640). STARLINK-30324 can be tracked NOW for your location showing map with azimuth and elevation plus other details from your city location.







IsCatalogInMostPopularTable: catalog: 57640, numindb: 7
Update: records affected: 1



GetName: 57640 STARLINK-30324

Hit Count: updated at: Tue, 26 Sep 2023 13:04:37 GMT